Wetbulb
55.28 54.70 54.46 54.32 54.86 55.28 55.68 55.60 55.80 56.26 56.02 56.38 56.54 56.69 54.91 54.54 51.31 50.74 51.23 55.26 58.62 60.83 59.05 58.20 57.32 56.91 56.86 56.48 56.10 55.73 55.53 54.86 54.81 54.68 54.80 54.76 54.30 54.51 54.55 54.44 53.86 54.18 54.11
56.10 55.96 55.50 55.80 55.99 56.73 56.73 56.37 56.11 56.09 55.91 56.16 56.86 58.56 56.32 55.05 51.49 50.16 50.51 52.55 58.04 58.05 57.00 56.66 56.22 56.28 56.26 55.95 55.80 55.42 54.77 54.24 54.08 54.28 54.37 53.90 54.21 53.64 53.31 53.43 53.08 52.80 52.70
56.73 56.51 56.33 55.97 56.91 56.99 56.77 56.25 56.31 56.21 55.70 56.86 56.42 58.48 56.41 53.73 50.29 48.83 48.76 49.48 50.82 54.58 54.33 54.40 54.22 54.71 55.22 55.22 55.04 54.34 53.97 54.22 53.55 53.67 53.36 53.59 53.03 52.89 52.49 51.99 52.14 52.03 51.77
56.78 55.82 56.04 56.63 57.39 57.13 56.91 56.23 55.74 54.90 54.41 53.96 54.73 55.88 55.67 53.37 50.04 47.86 47.49 47.49 47.20 46.81 49.45 51.60 51.56 52.72 53.67 54.11 54.11 53.68 53.07 53.29 52.92 52.88 53.21 52.29 52.34 52.20 51.90 51.86 51.44 51.19 50.64
57.20 56.09 56.37 56.97 57.71 57.27 56.71 56.29 55.12 53.84 53.66 53.09 53.82 54.25 53.55 52.84 49.13 47.25 45.13 46.27 46.04 43.25 42.81 48.13 47.95 49.46 51.32 52.31 52.99 52.83 52.18 52.02 52.42 52.06 51.43 51.62 51.53 51.28 50.99 50.68 50.10 49.85 49.97
58.14 56.84 56.85 57.19 57.27 56.27 55.83 55.20 54.63 54.16 53.54 52.69 54.55 52.31 50.09 46.65 44.57 44.86 44.03 45.55 42.85 40.39 38.57 38.78 38.34 41.13 48.55 50.02 51.21 51.70 51.59 51.51 50.87 50.67 51.19 50.57 50.61 50.41 50.07 49.51 49.73 49.65 48.96
57.84 57.37 56.85 56.83 56.67 56.39 56.12 55.68 54.50 53.81 53.50 53.79 51.63 50.83 49.54 45.74 42.86 42.82 43.17 42.52 40.01 37.15 35.66 35.76 34.69 35.16 37.75 46.71 48.84 49.75 50.61 50.97 50.55 50.09 49.36 49.89 49.87 49.75 49.50 49.28 48.92 48.66 48.52
58.31 58.21 57.24 56.85 56.53 56.07 55.50 55.00 54.02 52.94 52.93 53.62 50.82 50.99 48.28 46.25 42.85 41.73 41.96 41.29 37.32 35.96 35.50 35.64 34.00 34.16 35.12 36.74 42.49 47.17 48.61 49.18 49.06 48.23 48.74 48.23 48.49 48.43 48.92 48.90 48.34 47.88 47.86
58.58 58.37 57.69 57.71 56.91 56.97 56.83 55.34 54.90 53.53 52.27 52.56 52.55 51.28 48.68 46.75 42.45 39.52 39.70 41.03 36.57 34.53 34.25 34.69 33.79 33.44 34.44 34.85 37.55 40.29 45.53 46.30 47.11 47.16 46.50 47.36 47.19 47.72 47.89 47.90 47.43 47.21 46.92
58.82 58.72 58.30 57.75 57.40 57.21 56.79 56.71 56.06 55.46 52.85 51.62 52.70 54.12 51.45 49.33 44.48 38.22 37.77 36.40 36.95 35.35 33.40 33.63 33.26 32.81 33.61 34.68 38.17 41.17 43.27 43.95 44.21 44.62 45.12 45.48 45.95 46.41 46.81 46.54 46.44 46.48 46.36
58.80 58.91 58.89 58.01 57.86 57.82 57.64 57.07 54.72 55.00 55.14 53.69 52.07 50.04 49.69 46.40 45.53 41.41 36.14 34.64 37.08 36.66 33.87 33.24 33.19 32.19 32.50 33.51 34.22 37.46 42.80 43.01 42.59 42.51 42.77 43.15 43.83 44.65 45.39 45.37 45.27 45.12 45.12
58.02 59.00 58.74 58.73 58.47 58.38 57.56 56.97 56.49 55.62 55.76 55.76 55.00 51.64 50.41 48.07 44.46 40.84 38.30 34.40 34.83 36.27 35.60 32.77 32.55 31.91 31.74 32.23 35.89 39.00 41.97 43.27 42.57 41.57 41.44 41.65 41.72 42.61 43.34 43.57 43.72 43.77 43.76
57.93 58.49 58.69 58.66 58.81 58.66 58.24 57.66 56.43 56.17 55.74 55.46 55.48 54.98 53.44 52.14 47.98 43.99 40.67 34.33 33.57 34.76 35.20 34.87 32.30 32.23 33.09 31.82 34.07 37.92 40.03 42.24 42.57 41.39 40.45 40.03 40.30 40.61 41.07 41.78 42.01 41.99 41.99
58.69 59.15 59.34 59.29 59.03 58.83 58.33 57.62 57.50 56.83 56.59 55.90 55.72 55.62 55.22 52.91 48.09 43.88 42.61 37.45 30.04 32.13 32.16 33.67 32.00 32.13 32.05 32.06 34.64 38.21 35.58 39.80 42.01 41.47 40.27 39.26 38.98 39.23 39.45 40.05 40.40 40.34 40.29
58.94 58.28 58.69 58.93 59.21 58.69 58.39 57.92 57.51 56.91 56.39 56.02 56.33 56.51 55.60 54.89 49.95 49.25 45.37 40.32 45.51 30.78 31.05 32.04 30.77 31.60 32.05 32.85 34.09 33.87 33.25 37.21 40.43 40.24 39.66 38.77 37.81 37.82 38.00 38.43 38.79 38.96 39.06
58.39 57.76 57.99 58.41 58.58 58.71 58.20 58.00 57.98 57.68 57.01 56.63 56.77 56.59 56.08 55.18 51.04 47.78 41.54 37.81 41.21 44.06 41.82 33.24 32.47 32.38 33.03 33.07 34.08 31.37 32.41 36.25 38.19 38.62 38.11 37.80 37.37 36.92 36.87 36.56 36.92 37.24 37.28
58.12 57.91 58.16 58.31 58.24 58.14 58.40 58.17 57.95 58.18 57.07 56.61 56.57 55.20 54.54 53.15 49.13 43.75 40.96 39.99 37.11 36.00 38.64 31.11 32.26 32.09 31.92 31.83 32.54 31.43 32.12 32.78 33.51 36.48 37.00 37.46 37.20 36.92 36.31 36.16 35.82 35.81 35.69
57.31 58.12 57.97 57.78 58.24 58.73 58.90 58.44 57.75 57.29 56.83 55.19 54.92 51.15 51.85 48.88 46.66 43.82 42.11 41.48 40.04 36.67 34.19 30.55 30.32 29.58 30.19 32.31 31.42 29.89 31.37 32.53 32.08 34.47 36.55 37.09 37.06 36.69 36.41 36.46 35.70 35.05 34.37
57.75 58.17 58.40 58.04 58.04 58.14 58.20 58.34 58.24 57.23 55.77 55.15 54.68 51.71 51.24 46.50 45.30 43.93 41.91 41.01 38.83 36.08 33.85 32.34 30.17 30.88 30.52 29.76 29.73 29.96 29.27 30.73 31.88 33.81 35.95 36.83 37.08 36.56 36.52 36.35 36.03 35.03 34.17
57.67 57.20 57.67 58.60 58.14 58.23 57.76 57.65 56.41 55.65 54.97 53.51 52.69 52.13 50.47 46.21 45.73 43.30 40.31 38.83 35.56 34.12 33.28 31.59 30.24 29.87 29.93 29.76 30.13 29.03 27.89 28.93 29.13 30.97 32.83 33.65 34.50 35.66 36.39 36.29 35.49 34.65 33.61
52.26 53.10 53.83 52.66 51.91 51.75 51.91 51.99 51.14 50.22 48.97 48.05 44.81 43.78 43.43 40.84 38.51 40.36 38.00 35.24 35.17 32.93 32.06 31.35 30.22 29.44 28.66 28.46 28.94 28.84 28.80 28.17 28.14 28.90 28.48 29.17 29.29 28.59 29.69 34.23 33.94 33.73 33.35
43.77 43.45 42.57 43.10 44.37 46.24 43.84 44.21 44.37 44.66 43.20 41.63 40.48 38.43 37.51 35.22 37.54 37.83 37.90 37.17 36.44 33.55 31.85 31.24 30.07 30.03 30.46 29.82 29.22 27.99 27.13 25.53 24.11 26.64 25.96 26.66 27.49 27.16 27.49 27.35 32.34 33.59 33.89
39.59 39.25 39.39 39.71 39.56 39.99 40.57 41.81 40.50 40.61 39.25 38.97 36.90 34.84 33.48 33.43 34.18 34.75 36.78 36.62 36.09 36.68 35.64 32.84 31.45 31.02 30.68 30.67 29.61 27.00 26.98 25.73 25.43 26.97 26.37 23.46 26.02 25.44 24.82 28.40 33.20 33.85 34.21
36.43 36.83 36.35 36.95 37.31 36.56 38.95 39.87 38.82 37.66 36.73 36.10 35.50 34.66 33.61 32.98 33.52 33.72 33.84 33.22 32.84 33.58 33.84 32.83 33.14 32.15 32.83 32.59 31.71 29.57 28.40 26.10 25.20 27.45 26.33 19.34 22.47 23.32 23.25 25.60 31.24 33.30 34.56
33.19 33.49 32.41 32.05 32.86 33.33 37.01 38.12 37.59 33.78 33.87 32.55 33.09 32.94 32.97 32.35 34.73 35.74 32.86 31.98 31.73 31.91 35.21 35.46 34.88 35.01 35.09 34.60 31.81 27.97 24.45 24.92 21.08 24.01 26.62 23.59 23.92 23.38 23.77 24.85 27.05 33.67 34.39
31.46 31.68 32.67 32.50 32.02 32.95 35.67 37.91 35.30 32.47 32.32 31.03 31.18 31.48 31.82 32.85 35.42 35.98 32.73 31.98 30.84 31.31 31.52 31.61 31.61 32.92 34.13 33.27 33.84 29.27 27.12 24.61 22.98 21.23 25.90 23.67 23.38 24.46 21.45 23.67 23.98 24.79 27.21
MSLP
1025.63 1025.79 1025.99 1026.11 1026.08 1026.04 1026.06 1026.05 1025.97 1025.87 1025.85 1025.81 1025.97 1026.14 1026.45 1026.63 1026.73 1026.73 1026.67 1026.45 1026.27 1026.18 1026.42 1026.53 1026.56 1026.50 1026.47 1026.42 1026.34 1026.37 1026.33 1026.26 1026.06 1025.59 1025.45 1025.23 1024.94 1024.75 1024.74 1024.48 1024.17 1023.72 1023.57
1025.32 1025.55 1025.77 1025.90 1025.98 1025.95 1025.94 1025.96 1025.99 1025.95 1025.97 1025.93 1025.93 1026.00 1026.38 1026.74 1026.99 1027.26 1027.18 1027.08 1026.84 1026.83 1027.01 1027.11 1027.06 1026.95 1026.79 1026.83 1026.78 1026.76 1026.67 1026.50 1026.21 1025.97 1025.75 1025.40 1025.17 1025.21 1025.08 1024.97 1024.69 1024.20 1023.82
1025.12 1025.29 1025.46 1025.61 1025.59 1025.62 1025.76 1025.93 1025.94 1025.98 1026.12 1026.04 1026.02 1026.07 1026.55 1027.01 1027.55 1027.79 1027.90 1027.80 1027.63 1027.72 1027.84 1027.81 1027.78 1027.49 1027.27 1027.03 1026.99 1027.07 1027.04 1026.79 1026.71 1026.37 1026.15 1026.00 1025.69 1025.50 1025.23 1024.93 1024.74 1024.45 1024.03
1024.61 1024.86 1025.07 1025.29 1025.38 1025.68 1025.81 1025.89 1026.03 1026.22 1026.35 1026.37 1026.39 1026.48 1026.67 1027.15 1027.60 1027.92 1028.14 1028.24 1028.30 1028.36 1028.51 1028.39 1028.42 1028.31 1027.89 1027.64 1027.44 1027.32 1027.28 1027.05 1026.85 1026.70 1026.48 1026.42 1026.15 1025.91 1025.55 1025.15 1025.02 1024.79 1024.36
1024.29 1024.51 1024.72 1024.88 1025.09 1025.29 1025.48 1025.67 1025.94 1026.09 1026.25 1026.36 1026.47 1026.62 1026.68 1027.23 1027.54 1027.86 1028.46 1028.70 1028.76 1028.91 1028.99 1029.00 1029.03 1028.89 1028.47 1028.00 1027.73 1027.62 1027.53 1027.36 1027.20 1026.98 1026.63 1026.48 1026.46 1026.26 1025.98 1025.53 1025.16 1024.90 1024.59
1023.66 1024.13 1024.40 1024.49 1024.76 1025.17 1025.45 1025.67 1025.82 1025.91 1026.08 1026.33 1026.66 1027.05 1027.25 1027.70 1028.07 1028.40 1028.79 1029.04 1029.22 1029.39 1029.65 1029.75 1029.58 1029.44 1028.90 1028.52 1028.06 1027.87 1027.67 1027.48 1027.41 1027.26 1027.01 1026.68 1026.36 1026.28 1026.14 1025.94 1025.58 1025.27 1024.87
1023.25 1023.60 1023.94 1024.28 1024.62 1024.92 1025.09 1025.22 1025.47 1025.70 1025.95 1026.21 1026.82 1027.52 1027.66 1028.02 1028.39 1028.70 1028.91 1029.28 1029.46 1029.66 1029.75 1029.94 1029.93 1029.96 1029.84 1029.33 1028.68 1028.21 1027.81 1027.54 1027.50 1027.38 1027.21 1027.10 1026.73 1026.44 1026.36 1026.09 1025.78 1025.59 1025.23
1022.64 1023.00 1023.31 1023.61 1023.95 1024.35 1024.64 1024.93 1025.28 1025.59 1025.71 1025.99 1026.40 1026.84 1027.41 1028.10 1028.23 1028.60 1028.94 1029.33 1029.75 1029.85 1029.97 1030.02 1030.09 1030.06 1029.98 1029.62 1029.14 1028.56 1027.93 1027.58 1027.38 1027.47 1027.34 1027.11 1026.87 1026.74 1026.49 1026.37 1026.23 1025.88 1025.49
1021.86 1022.34 1022.74 1023.03 1023.37 1023.75 1024.14 1024.39 1024.67 1025.06 1025.36 1025.55 1025.47 1025.78 1026.67 1027.03 1027.79 1028.51 1028.78 1029.00 1029.46 1029.74 1029.93 1030.03 1030.04 1029.93 1029.79 1029.60 1029.30 1029.08 1028.29 1027.90 1027.69 1027.46 1027.50 1027.21 1027.21 1026.65 1026.59 1026.57 1026.51 1026.15 1025.82
1021.29 1021.61 1021.95 1022.46 1022.85 1023.16 1023.36 1023.38 1023.68 1024.23 1024.62 1024.96 1025.32 1025.11 1025.22 1025.32 1026.78 1028.15 1028.47 1028.56 1028.75 1028.96 1029.24 1029.50 1029.50 1029.48 1029.51 1029.24 1028.96 1028.84 1028.66 1028.43 1028.27 1028.02 1027.99 1027.74 1027.36 1027.24 1027.03 1026.90 1026.71 1026.64 1026.29
1020.79 1020.97 1021.30 1021.66 1021.90 1022.14 1022.34 1022.70 1023.19 1023.61 1023.85 1024.12 1024.37 1024.71 1025.21 1025.38 1025.39 1026.24 1027.41 1027.84 1028.42 1028.18 1028.17 1028.59 1028.61 1028.85 1029.02 1029.01 1029.07 1029.17 1028.98 1028.74 1028.52 1028.33 1028.04 1028.20 1027.91 1027.49 1027.26 1027.21 1026.85 1026.62 1026.59
1020.14 1020.35 1020.61 1020.78 1021.01 1021.23 1021.52 1021.87 1022.20 1022.66 1022.94 1023.20 1023.49 1023.65 1023.63 1023.99 1024.70 1025.28 1026.14 1026.68 1026.91 1027.24 1027.47 1027.64 1028.26 1028.15 1028.41 1028.66 1028.53 1028.36 1028.50 1028.62 1028.65 1028.58 1028.56 1028.44 1028.35 1027.91 1027.70 1027.39 1027.18 1026.88 1026.84
1019.05 1019.10 1019.53 1019.91 1020.01 1020.21 1020.54 1020.96 1021.43 1021.69 1022.01 1022.30 1022.34 1022.40 1022.62 1022.74 1022.91 1023.56 1024.45 1025.37 1025.97 1026.33 1026.88 1027.17 1027.37 1027.62 1027.63 1028.03 1028.26 1028.33 1028.36 1028.33 1028.65 1028.74 1028.79 1028.64 1028.36 1028.21 1027.96 1027.60 1027.36 1027.22 1027.08
1017.60 1017.85 1018.33 1018.74 1019.03 1019.34 1019.59 1020.01 1020.59 1020.72 1020.90 1021.08 1021.20 1021.42 1021.50 1021.75 1021.99 1022.06 1022.60 1023.96 1025.28 1025.86 1026.31 1025.85 1026.33 1026.94 1027.33 1027.58 1028.06 1028.25 1028.38 1028.41 1028.48 1028.61 1028.79 1028.60 1028.51 1028.64 1028.51 1028.15 1027.85 1027.51 1027.18
1016.66 1017.07 1017.28 1017.76 1018.06 1018.55 1018.86 1019.09 1019.42 1019.51 1019.75 1019.73 1019.96 1020.30 1020.48 1020.59 1020.90 1020.94 1021.00 1021.49 1022.19 1024.37 1025.02 1025.14 1025.87 1026.27 1026.83 1026.96 1027.30 1027.79 1028.23 1028.30 1028.22 1028.47 1028.68 1028.74 1028.73 1028.62 1028.47 1028.19 1027.98 1027.85 1027.45
1015.87 1016.26 1016.59 1016.93 1017.29 1017.55 1017.73 1018.28 1018.48 1018.61 1018.92 1018.86 1019.04 1019.16 1019.31 1019.50 1019.74 1020.07 1020.55 1020.75 1020.99 1021.50 1022.64 1023.43 1024.36 1024.91 1025.96 1026.61 1027.20 1027.77 1028.27 1028.19 1028.35 1028.49 1028.70 1028.90 1028.57 1028.46 1028.43 1028.11 1027.90 1028.05 1027.59
1015.02 1015.41 1015.78 1016.13 1016.43 1016.77 1017.07 1017.45 1017.55 1017.68 1017.83 1017.89 1018.09 1018.26 1018.27 1018.63 1018.99 1019.22 1019.48 1019.98 1020.37 1020.82 1021.65 1023.09 1023.97 1024.52 1025.52 1026.08 1026.48 1026.98 1027.95 1028.40 1028.28 1028.28 1028.48 1028.53 1028.14 1028.15 1028.13 1028.07 1028.13 1028.14 1027.97
1014.40 1014.75 1015.15 1015.32 1015.58 1015.83 1016.12 1016.28 1016.42 1016.65 1016.82 1016.99 1017.09 1017.55 1017.51 1018.06 1018.28 1018.65 1018.79 1018.83 1019.09 1019.87 1020.69 1022.33 1023.43 1025.62 1025.63 1025.88 1026.83 1026.91 1027.26 1027.71 1027.94 1027.77 1028.10 1028.24 1028.05 1027.91 1027.95 1027.83 1028.01 1028.11 1027.97
1013.67 1014.01 1014.31 1014.52 1014.74 1014.93 1015.16 1015.23 1015.38 1015.53 1015.63 1015.63 1015.79 1016.26 1016.41 1017.04 1017.25 1017.61 1017.47 1018.24 1019.82 1021.14 1020.66 1023.06 1025.28 1024.33 1026.33 1026.73 1026.81 1027.66 1027.23 1026.96 1027.39 1027.18 1027.24 1027.25 1027.32 1027.39 1027.51 1027.50 1027.46 1027.61 1027.82
1013.03 1013.33 1013.53 1013.61 1013.82 1014.02 1014.22 1014.38 1014.51 1014.67 1014.91 1015.03 1015.39 1015.62 1015.86 1016.36 1016.79 1017.20 1017.82 1018.73 1019.56 1020.47 1022.09 1021.56 1023.05 1024.52 1025.25 1026.61 1026.36 1027.06 1027.56 1026.85 1026.71 1026.89 1026.74 1026.81 1027.04 1026.79 1026.96 1027.16 1027.28 1027.33 1027.53
1013.16 1013.18 1013.22 1013.47 1013.63 1013.77 1014.00 1014.21 1014.29 1014.64 1014.92 1015.11 1015.36 1015.91 1016.11 1016.51 1016.76 1017.08 1017.66 1018.42 1019.15 1019.98 1021.05 1022.16 1023.00 1023.83 1025.27 1025.82 1026.02 1026.19 1026.63 1026.93 1026.47 1026.51 1026.54 1026.25 1026.75 1026.87 1026.79 1026.86 1026.87 1027.07 1027.11
1013.64 1013.70 1013.87 1014.00 1014.09 1014.16 1014.32 1014.50 1014.60 1014.90 1015.23 1015.35 1015.76 1016.02 1016.28 1016.71 1017.10 1017.41 1018.04 1018.64 1019.02 1019.65 1020.66 1021.69 1022.82 1022.35 1023.64 1024.68 1025.26 1025.57 1026.29 1026.54 1026.81 1026.39 1026.42 1026.06 1026.03 1026.13 1026.30 1026.56 1026.53 1026.53 1026.51
1014.37 1014.59 1014.71 1014.76 1014.86 1014.95 1014.96 1014.88 1014.97 1015.22 1015.57 1015.88 1016.25 1016.64 1016.90 1017.21 1017.32 1017.74 1017.92 1018.19 1018.73 1019.13 1019.62 1020.42 1021.06 1021.77 1022.46 1023.67 1024.62 1024.98 1025.56 1025.38 1025.64 1026.02 1026.06 1025.85 1025.48 1025.70 1025.64 1025.60 1025.66 1025.71 1025.66
1015.00 1015.22 1015.45 1015.45 1015.46 1015.44 1015.20 1015.20 1015.32 1015.43 1015.63 1015.81 1016.10 1016.46 1016.78 1017.13 1017.04 1017.75 1018.36 1018.61 1019.19 1019.10 1019.58 1019.88 1020.15 1021.10 1021.96 1022.73 1022.98 1023.52 1024.51 1024.93 1025.48 1025.98 1025.73 1025.98 1025.39 1025.54 1025.30 1025.08 1024.93 1024.82 1024.74
1015.43 1015.60 1015.85 1015.95 1016.00 1016.03 1015.92 1015.78 1015.90 1016.14 1016.35 1016.57 1016.69 1016.72 1016.80 1016.90 1017.04 1017.41 1017.84 1018.22 1019.07 1019.68 1019.74 1020.19 1020.63 1021.12 1022.10 1022.77 1022.91 1023.96 1024.78 1025.42 1025.49 1025.16 1025.19 1025.53 1025.14 1025.42 1025.01 1024.49 1024.42 1024.28 1024.20
1015.97 1016.02 1016.04 1016.18 1016.20 1016.18 1016.07 1015.85 1016.12 1016.44 1016.82 1017.02 1017.20 1017.26 1017.44 1017.34 1017.37 1017.46 1017.77 1018.05 1018.59 1019.41 1020.02 1020.33 1020.81 1021.04 1021.56 1022.05 1022.48 1023.02 1023.79 1024.00 1024.15 1024.72 1024.32 1024.64 1024.56 1024.79 1024.61 1024.23 1024.28 1024.32 1024.41
Wind_Speed
4 3 2 2 2 1 2 2 2 1 1 1 3 5 5 5 4 2 2 8 7 11 12 10 10 9 10 11 11 12 13 13 13 14 16 15 16 19 19 20 20 23 22
4 4 4 4 4 3 3 3 3 3 2 2 3 4 5 4 5 4 3 5 11 12 10 10 9 9 9 10 11 12 12 11 13 13 15 15 17 18 18 20 20 21 22
5 5 4 4 4 4 4 3 2 1 2 3 3 4 5 6 4 5 4 4 6 12 10 9 9 9 8 9 10 11 11 10 13 13 15 15 16 16 17 17 19 20 21
7 6 5 4 4 3 3 2 2 1 1 1 1 3 5 5 5 5 4 3 4 4 7 9 8 8 8 9 9 10 10 11 10 13 14 14 16 16 17 18 19 20 19
7 6 4 4 5 4 4 3 3 2 2 1 2 3 4 4 6 5 5 5 5 5 4 8 9 8 7 8 8 9 9 9 13 11 12 13 14 15 16 17 17 17 19
7 6 4 5 4 3 3 2 3 3 2 2 3 4 4 4 3 2 4 3 4 5 5 4 4 4 6 7 7 7 7 7 9 9 12 11 12 14 14 16 16 18 18
7 7 5 5 5 6 6 6 4 5 4 3 4 3 4 4 4 3 3 3 4 4 5 3 3 2 3 9 7 5 6 8 9 10 8 11 11 12 13 14 17 17 18
9 8 7 7 7 5 6 6 5 3 3 5 4 2 3 2 2 3 2 3 4 3 4 4 3 3 2 2 3 3 4 5 6 6 9 7 9 11 12 15 16 16 17
10 10 9 8 7 6 6 6 7 7 4 4 6 5 3 4 3 2 4 4 6 4 4 4 4 3 3 1 1 4 2 3 5 5 4 8 7 9 11 13 14 16 16
11 10 10 9 8 7 8 9 7 6 4 5 2 5 2 5 4 3 2 4 6 7 6 5 5 5 5 3 2 4 2 3 3 5 5 5 7 9 12 12 14 15 16
11 11 11 10 11 9 10 10 7 9 7 5 4 3 1 1 2 3 4 4 3 5 6 5 6 5 6 5 3 4 5 5 4 3 4 4 7 8 10 11 12 14 15
8 11 11 12 11 11 11 10 10 10 10 9 7 5 5 5 5 4 2 3 5 5 7 6 7 6 5 5 7 9 7 9 7 4 2 4 5 7 8 9 11 13 14
9 12 14 13 12 12 12 10 10 11 11 11 13 10 9 9 4 4 4 3 4 3 4 5 6 6 6 5 5 8 7 8 9 6 3 2 3 4 6 9 10 11 12
11 11 12 14 14 13 13 11 9 10 11 12 16 12 10 10 6 6 7 7 2 3 3 5 5 7 5 5 7 10 5 7 9 8 6 3 1 3 5 8 9 10 11
11 11 12 14 14 13 13 14 11 13 12 13 14 14 11 10 9 11 7 6 9 6 10 7 5 7 6 6 9 6 5 6 8 7 6 4 2 2 3 5 8 9 10
11 10 11 12 13 14 14 13 13 13 12 12 11 14 13 11 10 7 6 5 5 8 8 4 6 5 8 6 6 5 5 8 8 8 8 7 5 4 2 3 5 7 9
12 11 12 12 13 13 13 13 14 15 14 15 13 12 14 12 9 8 7 7 6 4 9 2 2 3 7 9 7 6 5 4 4 8 10 11 10 8 5 4 5 7 8
10 11 11 12 13 14 14 14 15 13 15 14 15 11 15 7 11 8 8 12 11 8 4 5 4 3 1 7 5 7 5 5 5 9 12 13 13 10 9 8 6 7 7
11 11 12 12 13 14 13 14 15 15 15 16 15 14 15 11 13 9 10 8 0 3 5 6 4 3 3 2 3 1 4 4 4 11 14 14 16 12 12 11 10 10 8
11 10 11 13 13 13 13 13 13 13 12 12 11 11 11 10 13 10 7 6 6 8 4 7 6 5 3 2 3 4 4 3 5 5 9 10 12 11 15 14 14 12 10
3 3 4 2 2 2 2 4 5 5 5 4 2 3 3 3 2 5 6 7 9 7 7 7 2 4 4 3 9 3 4 1 3 4 3 5 4 3 5 13 11 12 12
4 4 3 2 1 1 4 4 2 2 3 3 4 2 3 5 5 9 7 12 12 10 8 6 2 7 6 5 4 4 3 3 3 0 1 5 5 6 5 4 13 17 16
5 5 5 5 5 4 5 6 3 1 0 1 1 2 2 2 6 6 13 16 16 18 14 7 8 5 7 8 6 5 5 3 3 2 3 3 3 6 4 7 18 20 19
4 4 5 5 3 4 5 4 2 2 3 3 4 5 5 6 7 9 9 8 7 9 9 6 7 7 6 9 11 5 5 4 2 1 2 3 1 3 2 4 15 18 18
3 4 4 5 6 5 10 9 3 3 2 2 0 3 4 6 12 17 10 10 8 3 7 9 6 6 8 11 9 6 3 3 3 2 5 3 2 2 3 3 5 16 16
3 2 4 5 5 4 8 6 4 2 2 2 3 3 4 5 15 16 8 10 9 7 7 6 6 7 11 10 15 6 6 5 3 2 5 5 2 3 3 1 1 2 3
Wind_Direction
185 178 215 231 242 260 244 228 226 230 230 222 123 135 131 119 100 78 53 49 40 89 88 86 77 74 70 65 62 58 57 54 54 55 53 51 43 38 35 29 28 26 26
182 187 197 218 233 219 224 213 211 220 242 256 197 148 132 116 108 86 59 38 65 87 89 80 69 66 68 62 59 57 57 57 56 50 61 43 45 46 39 33 29 29 24
197 197 202 212 218 211 215 212 230 247 278 293 283 130 127 118 98 90 66 53 61 66 72 74 63 59 61 66 64 60 57 53 51 49 45 48 43 41 39 37 27 25 29
192 197 196 211 210 202 198 193 202 255 288 235 71 105 125 131 117 113 100 79 64 67 69 74 56 46 51 54 61 62 60 51 57 50 52 41 44 40 37 38 33 28 24
201 195 194 203 193 197 196 190 198 178 203 194 142 153 124 150 144 134 121 104 91 86 75 82 60 34 44 52 58 61 64 59 57 49 54 48 44 41 37 36 34 29 25
204 191 206 214 186 178 200 182 195 204 197 152 101 83 73 71 72 73 117 100 97 92 86 80 55 357 44 46 53 59 68 66 62 54 52 48 50 45 37 33 31 27 24
197 195 200 195 185 196 199 195 182 197 221 149 107 81 70 87 103 110 126 124 119 114 116 108 86 37 3 19 23 50 65 73 69 57 56 47 43 47 41 33 33 26 23
203 202 199 201 194 194 200 191 179 184 219 180 155 153 158 158 177 162 145 147 156 144 139 134 114 97 51 354 5 42 60 79 85 71 56 52 50 42 39 34 31 25 22
203 203 204 204 202 196 204 200 196 188 201 210 210 155 154 210 140 158 192 178 168 174 169 163 156 156 163 137 333 327 89 87 83 78 64 58 45 47 38 36 30 26 21
213 207 206 205 204 201 207 208 197 199 168 209 218 231 273 147 178 190 220 200 185 189 186 190 183 183 187 196 222 272 183 109 85 76 52 43 43 39 37 32 31 24 20
216 210 206 202 207 207 215 211 193 202 203 200 185 148 133 355 93 141 195 207 232 207 194 198 184 181 189 192 207 260 226 172 155 123 100 58 42 37 37 32 29 27 19
213 218 210 213 216 215 214 212 212 207 209 215 212 196 185 176 189 169 172 192 207 208 198 184 199 190 188 190 199 209 229 190 181 174 123 81 41 39 32 30 26 26 19
212 216 210 213 217 218 217 211 209 214 210 215 217 220 223 225 171 167 154 173 195 183 191 214 203 196 188 185 199 200 222 225 196 185 152 119 56 39 31 30 27 21 19
221 215 210 217 219 216 215 211 216 221 214 221 227 224 222 227 199 175 177 160 194 222 203 211 188 197 187 176 191 199 214 240 207 192 189 186 338 26 22 25 20 16 16
224 213 207 210 215 217 218 213 220 226 218 222 227 228 223 227 213 219 209 186 195 180 222 207 174 186 185 171 190 190 196 218 215 187 201 203 219 319 354 18 15 7 11
218 212 208 209 211 217 219 216 228 233 228 230 230 231 230 232 221 215 207 187 211 207 236 160 193 159 178 179 179 158 197 204 216 210 221 231 243 249 301 347 355 355 2
217 212 213 212 214 216 219 221 229 233 230 236 234 235 235 227 224 211 201 204 196 178 224 96 102 133 160 164 168 161 187 194 211 211 231 236 231 243 249 289 319 330 351
217 216 214 215 219 221 224 223 228 228 229 229 229 223 236 226 227 217 213 215 206 195 137 135 136 54 71 167 150 155 175 189 198 218 234 240 246 241 259 266 274 298 323
220 217 218 218 222 224 225 226 229 229 225 227 226 221 231 210 224 216 221 203 166 68 77 101 10 85 69 142 121 257 206 190 204 217 235 238 242 240 249 253 261 269 294
223 220 218 224 223 225 226 230 227 230 232 230 241 240 238 215 232 215 197 187 153 147 130 118 133 131 129 160 144 182 231 209 206 215 228 238 252 250 246 252 256 263 270
293 296 246 247 342 318 287 263 246 262 268 268 247 253 263 273 298 178 177 170 158 146 137 136 111 128 143 153 203 177 215 208 238 212 225 231 241 242 236 252 254 248 258
42 47 52 45 326 38 21 305 270 259 245 226 229 177 122 125 141 150 144 162 166 156 157 151 188 154 164 173 166 169 174 151 254 199 169 250 192 227 223 223 245 249 250
28 29 27 26 8 2 353 348 291 237 219 312 210 160 140 164 148 151 161 163 173 174 175 165 164 162 154 177 168 167 205 159 183 199 178 258 162 237 208 230 244 252 245
45 38 33 26 7 16 9 337 283 163 161 174 188 192 178 170 160 159 155 145 159 163 171 162 162 153 178 188 187 177 177 155 60 219 151 251 181 261 237 223 245 240 231
44 37 26 21 22 13 0 344 10 29 52 35 306 208 194 180 176 167 155 151 155 150 162 177 168 169 176 181 151 122 154 139 211 231 197 175 216 248 232 228 225 234 231
70 49 54 42 36 17 5 4 100 103 80 65 27 15 216 175 175 173 159 158 160 172 167 138 153 159 178 180 181 178 172 185 132 250 196 182 172 181 297 175 271 248 274